Hays, KS

1:02 PM CST on December 08, 2019 (GMT -0600)
Hays Regional

Weather History for KHYS - November, 2019

Change the Weather History Date:

Tuesday, November 12, 2019

  Actual Average Record
Temperature  
Mean Temperature 22 °F -  
Max Temperature 41 °F 53 °F 73 °F (1999)
Min Temperature 3 °F 30 °F 8 °F (2018)
Degree Days  
Heating Degree Days 43    
Moisture  
Dew Point 7 °F    
Average Humidity 52    
Maximum Humidity 87    
Minimum Humidity 27    
Precipitation  
Precipitation 0.00 in - - ()
Sea Level Pressure  
Sea Level Pressure 30.41 in    
Wind  
Wind Speed 10 mph (SSW)    
Max Wind Speed 23 mph    
Max Gust Speed 26 mph    
Visibility 10 miles    
Events      
Averages and records for this station are not official NWS values.
T = Trace of Precipitation, MM = Missing Value Source: NWS Daily Summary

Daily Weather History Graph

Daily Weather History Graph

Search for Another Location

Airport or City:

Astronomy

Nov. 12, 2019 Rise Set
Actual Time 7:16 AM CST 5:25 PM CST
Civil Twilight 6:47 AM CST 5:54 PM CST
Nautical Twilight 6:15 AM CST 6:26 PM CST
Astronomical Twilight 5:44 AM CST 6:57 PM CST
Moon 5:53 PM CST (11/12) 7:09 AM CST (11/12)
Length of Visible Light 11h 06m
Length of Day
10h 09m
Full, 100% of the Moon is Illuminated
Nov 12
Full
Nov 19
Last Quarter
Nov 26
New
Dec 4
First Quarter
Dec 11
Full

Hourly Weather History & Observations

Time (CST) Temp. Windchill Dew Point Humidity Pressure Visibility Wind Dir Wind Speed Gust Speed Precip Events Conditions
1:56 AM 6.1 °F -0.9 °F 1.9 °F 83% 30.78 in 10.0 mi WNW 3.5 mph - N/A   Clear
2:56 AM 5.0 °F -2.1 °F 1.9 °F 87% 30.76 in 10.0 mi West 3.5 mph - N/A   Clear
3:56 AM 5.0 °F -6.9 °F 1.9 °F 87% 30.73 in 10.0 mi WSW 6.9 mph - N/A   Clear
5:56 AM 3.9 °F -5.3 °F -0.0 °F 84% 30.70 in 10.0 mi WSW 4.6 mph - N/A   Clear
7:56 AM 5.0 °F -5.6 °F 1.0 °F 84% 30.66 in 10.0 mi South 5.8 mph - N/A   Clear
8:56 AM 12.9 °F -0.2 °F 7.0 °F 77% 30.64 in 10.0 mi SW 10.4 mph - N/A   Clear
9:56 AM 21.0 °F 6.2 °F 10.9 °F 65% 30.59 in 10.0 mi SSW 18.4 mph - N/A   Clear
10:56 AM 27.0 °F 14.3 °F 12.0 °F 53% 30.56 in 10.0 mi SSW 17.3 mph - N/A   Clear
12:56 PM 36.0 °F 24.7 °F 10.0 °F 34% 30.42 in 10.0 mi SSW 21.9 mph 26.5 mph N/A   Clear
1:56 PM 39.0 °F 28.8 °F 9.0 °F 29% 30.34 in 10.0 mi South 21.9 mph - N/A   Clear
2:56 PM 41.0 °F 31.9 °F 9.0 °F 27% 30.31 in 10.0 mi SSW 19.6 mph 26.5 mph N/A   Clear
3:56 PM 41.0 °F 31.1 °F 9.0 °F 27% 30.26 in 10.0 mi South 23.0 mph - N/A   Clear
4:56 PM 37.9 °F 29.2 °F 8.1 °F 29% 30.27 in 10.0 mi South 15.0 mph - N/A   Clear
5:56 PM 34.0 °F 23.8 °F 7.0 °F 32% 30.25 in 10.0 mi South 16.1 mph - N/A   Clear
6:56 PM 30.9 °F 20.7 °F 10.0 °F 42% 30.23 in 10.0 mi South 13.8 mph - N/A   Clear
7:56 PM 32.0 °F 23.6 °F 9.0 °F 38% 30.20 in 10.0 mi South 10.4 mph - N/A   Clear
8:56 PM 30.0 °F 20.5 °F 8.1 °F 40% 30.16 in 10.0 mi South 11.5 mph - N/A   Clear
9:56 PM 30.0 °F 19.5 °F 9.0 °F 41% 30.13 in 10.0 mi South 13.8 mph - N/A   Clear
10:56 PM 28.9 °F 18.6 °F 9.0 °F 43% 30.08 in 10.0 mi South 12.7 mph - N/A   Clear
11:56 PM 28.0 °F 19.3 °F 9.0 °F 45% 30.05 in 10.0 mi South 9.2 mph - N/A   Clear